Location: Trebic
(49.2170°N, 15.8830°E)
Time: 14:03:29
(UTC+02:00)

Transit 4A - Pass Details

Date: 31 August 2019
Orbit: 865 x 980 km, 66.8° (Epoch: 15 September)

Event Time Altitude Azimuth Distance (km) Brightness Sun altitude
Rises 21:21:50 0° 301° (WNW) 3,676 12.9 -15.7°
Reaches altitude 10° 21:25:40 10° 323° (NW) 2,715 11.5 -16.2°
Maximum altitude 21:29:18 16° 359° (N) 2,319 10.4 -16.7°
Drops below altitude 10° 21:32:54 10° 34° (NE) 2,677 10.3 -17.1°
Sets 21:36:39 0° 57° (ENE) 3,597 10.8 -17.6°
